This is the latest recevied weather packets stored in our database for station/object K5KVN. If no packets are shown the sender has not sent any weather packets the latest 10 day(s).
| Time | Temp. | Humidity | Pressure | Rain* | Wind** | Luminosity | Snow |
|---|---|---|---|---|---|---|---|
| 1787779024 | 36.67° C | 45% | 1014.2 hPa | 0 mm | - | - | - |
| 1787778425 | 36.67° C | 48% | 1013.9 hPa | 0 mm | - | - | - |
| 1787777824 | 36.11° C | 49% | 1014.1 hPa | 0 mm | - | - | - |
| 1787777226 | 36.67° C | 48% | 1014.4 hPa | 0 mm | - | - | - |
| 1787776623 | 36.67° C | 50% | 1014.6 hPa | 0 mm | - | - | - |
| 1787776083 | 36.67° C | 47% | 1015 hPa | 0 mm | - | - | - |
| 1787775422 | 36.67° C | 48% | 1015.2 hPa | 0 mm | - | - | - |
| 1787774824 | 36.67° C | 47% | 1015.4 hPa | 0 mm | - | - | - |
| 1787774223 | 36.67° C | 50% | 1015.5 hPa | 0 mm | - | - | - |
| 1787773620 | 36.67° C | 49% | 1015.7 hPa | 0 mm | - | - | - |
| 1787773082 | 36.11° C | 50% | 1015.8 hPa | 0 mm | - | - | - |
| 1787772420 | 36.11° C | 52% | 1016 hPa | 0 mm | - | - | - |
| 1787771821 | 36.67° C | 52% | 1016 hPa | 0 mm | - | - | - |
| 1787771220 | 36.11° C | 54% | 1016.1 hPa | 0 mm | - | - | - |
| 1787770621 | 36.11° C | 53% | 1016.2 hPa | 0 mm | - | - | - |
| 1787770021 | 36.11° C | 52% | 1016.1 hPa | 0 mm | - | - | - |
| 1787769421 | 35.56° C | 53% | 1016.3 hPa | 0 mm | - | - | - |
| 1787768818 | 35.56° C | 55% | 1016.3 hPa | 0 mm | - | - | - |
| 1787768219 | 34.44° C | 58% | 1016.4 hPa | 0 mm | - | - | - |
| 1787767618 | 34.44° C | 58% | 1016.5 hPa | 0 mm | - | - | - |
| 1787767022 | 34.44° C | 58% | 1016.6 hPa | 0 mm | - | - | - |
| 1787766477 | 34.44° C | 58% | 1016.7 hPa | 0 mm | - | - | - |
| 1787765816 | 35° C | 57% | 1016.8 hPa | 0 mm | - | - | - |
| 1787765216 | 34.44° C | 60% | 1016.9 hPa | 0 mm | - | - | - |
| 1787764618 | 34.44° C | 59% | 1017 hPa | 0 mm | - | - | - |
* Rain latest hour (hover to see other rain measurements)
** Current wind speed in m/s (hover to see current wind gust speed)